Regional Weather Roundup
Issued by NWS

Home | Current Version | Previous Version | Graphics & Text | Print | Product List | Glossary On
Versions: 1 2 3 4 5 6 7 8 9 10 11 12 13 14 15 16 17 18 19 20 21 22 23 24 25 26 27 28 29 30 31 32 33 34 35 36 37 38 39 40 41 42 43 44 45 46 47 48 49 50
000
ASUS43 KFSD 290702
RWRSD

WEATHER ROUNDUP FOR SOUTH DAKOTA
NATIONAL WEATHER SERVICE SIOUX FALLS SD
100 AM CST THU JAN 29 2015

NOTE: "FAIR" INDICATES FEW OR NO CLOUDS BELOW 12,000 FEET WITH NO
SIGNIFICANT WEATHER AND/OR OBSTRUCTIONS TO VISIBILITY.


SDZ001>005-009-010-012>017-290800-
NORTHWEST AND NORTH CENTRAL SOUTH DAKOTA

CITY           SKY/WX    TMP DP  RH WIND       PRES   REMARKS
BUFFALO          N/A     33  24  69 NW25G32   30.26R WCI  20
FAITH            N/A     33  26  75 NW16      30.29R WCI  23
MOBRIDGE       CLOUDY    35  27  72 NW24G38   30.22R WCI  23
$$

SDZ012>016-024>037-041>051-057-063-072>074-290800-
SOUTHWEST AND SOUTH CENTRAL SOUTH DAKOTA

CITY           SKY/WX    TMP DP  RH WIND       PRES   REMARKS
RAPID CTY ARPT CLOUDY    34  26  72 N26G33    30.33R WCI  21
PIERRE         CLOUDY    36  29  75 NW22G29   30.24R
CUSTER         CLEAR     26  13  57 CALM      30.27R
ELLSWORTH AFB  CLOUDY    34  25  71 N24G33    30.33  WCI  21
PHILIP         CLOUDY    36  25  64 N21G28    30.32R
PINE RIDGE     CLEAR     31  24  75 N14G23    30.33R WCI  21
WINNER         CLOUDY    37  29  72 NW21      30.24R
$$

SDZ004>011-016>023-039-040-290800-
NORTHEAST SOUTH DAKOTA

CITY           SKY/WX    TMP DP  RH WIND       PRES   REMARKS
ABERDEEN       CLOUDY    32  25  75 N23G35    30.17R WCI  19
WATERTOWN      CLOUDY    30  27  88 NW26G36   30.05R WCI  16
SISSETON         N/A     31  28  89 N22G36    30.07R WCI  18
$$

SDZ017-020-022-023-036>040-048>070-290800-
SOUTHEAST SOUTH DAKOTA

CITY           SKY/WX    TMP DP  RH WIND       PRES   REMARKS
SIOUX FALLS    CLOUDY    34  27  75 N25G32    30.04R WCI  21
HURON          CLOUDY    33  27  78 N21G35    30.16R WCI  21
MITCHELL       CLOUDY    35  30  82 NW28G33   30.16R WCI  22
YANKTON        CLOUDY   N/A N/A N/A NW25G38   30.12R
$$

ABBREVIATIONS USED IN REMARKS
   TC - TEMPERATURE IN CELSIUS
  WCI - WIND CHILL INDEX
   HX - HEAT INDEX
  VSB - VISIBILITY



USA.gov is the U.S. government's official web portal to all federal, state and local government web resources and services.